User: anonymous   Login
Location: Unspecified
(0.0000°N, 0.0000°E)
Time: 02:47:57
(UTC+01:00)
Language:

deb Ariane - Orbit

View from above orbital plane
View from above orbital plane
View from above satellite
View from above satellite

Ground track
Ground track

The orbit data is extracted from the following two-line orbital elements,

1 25668U 92060E   15086.10805093  .30155130 -28389-4  91623-3 0  9997
2 25668 007.4351 022.4840 0524482 273.2652 200.2966 15.29959252266155
Epoch (UTC): 27 March 2015 02:35:35
Eccentricity: 0.0524482
inclination: 7.4351°
perigee height: 116 km
apogee height: 835 km
right ascension of ascending node: 22.4840°
argument of perigee: 273.2652°
revolutions per day: 15.29959252
mean anomaly at epoch: 200.2966°
orbit number at epoch: 26615

The dashed part of the orbit path shows where the satellite is in the earth's shadow,  

DLR